Airfield :
LOGIN :

Register | Disclaimer

   EN    FR    IT 

 










Legend :    VFR   Marginal VFR   IFR   Intensive IFR   Very Intensive IFR
Visi :
Ceiling :
>= 8 km
>= 3000ft
5 to 8 km
1000 to 3000 ft
1500m to 5 km
500 to 1000 ft
800 to 1500m
200 to 500 ft
< 800m
< 200 ft
Symbols :   Thunderstorms  Fog  Heavy snow  Heavy precipitations  Wind > 20 kt
SIGMETs :     Misc.  Thunderstorms  Icing  Turbulence  Mountain Waves  Volcanic Ashes







- Airport Elevation : 55 ft
- IATA code : DSA
- Download approach charts


EGCN - Robin Hood Doncaster Sheffield

CURRENT METAR :
  • 192150Z 21013KT 9999 SCT033 20/15 Q1019

EXPIRED METARs :
  • 192120Z 22013KT 9999 SCT033 21/16 Q1019
  • 192050Z 22014KT 9999 SCT032 21/16 Q1019
  • 192020Z 22011KT 9999 FEW032 SCT045 21/16 Q1019
  • 191950Z 22012KT 9999 FEW031 SCT047 22/16 Q1019
  • 191920Z 23014KT 9999 FEW035 22/16 Q1019

TAF TAF EGCN
Valid from the 19 at 18:00 until the 20 at 18:00 UTC


191656Z 1918/2018 22012KT 9999 BKN040
PROB40
TEMPO 1921/2012 22015G25KT
PROB30
TEMPO 2008/2014 7000 -RA BKN014
BECMG 2012/2015 28012KT
No reported NOTAMs for that airfield.



MET'MAP, your aeronautical weather chart ! - Copyright ORBIFLY December 2007 - Disclaimer

ORBIFLY MET'MAP TEAM :

Programming & Development : Alexandra Zaïnal
Concept & Development : Baudouin d'Aumeries
Co-Development & Prog : Marc-Olivier Méhu
Technical & hardware support : Manuel Goepfert

Contact : metmap@orbifly.com




SOURCES & CREDITS :

   NOAA